Cheyenne, WY

4:59 PM MDT on August 18, 2017 (GMT -0600)
Cheyenne

Weather History for KCYS - February, 2014

Change the Weather History Date:

Wednesday, February 19, 2014

  Actual Average Record
Temperature  
Mean Temperature 39 °F 30 °F  
Max Temperature 54 °F 41 °F 62 °F (1958)
Min Temperature 23 °F 19 °F -13 °F (1918)
Degree Days  
Heating Degree Days 26 35  
Month to date heating degree days 821 689  
Since 1 July heating degree days 4845 4716  
Cooling Degree Days 0 0  
Month to date cooling degree days 0 0  
Year to date cooling degree days 0 0  
Moisture  
Dew Point 19 °F    
Average Humidity 55    
Maximum Humidity 88    
Minimum Humidity 22    
Precipitation  
Precipitation T in 0.02 in 1.57 in (1953)
Month to date precipitation 0.63 0.28  
Year to date precipitation 1.64 0.61  
Snow  
Snow T in 0.30 in 13.90 in (1953)
Month to date snowfall 10.0 5.1  
Since 1 July snowfall 50.7 33.7  
Snow Depth 0.00 in    
Sea Level Pressure  
Sea Level Pressure 29.65 in    
Wind  
Wind Speed 15 mph (WNW)    
Max Wind Speed 32 mph    
Max Gust Speed 41 mph    
Visibility 10 miles    
Events Snow    
T = Trace of Precipitation, MM = Missing Value Source: NWS Daily Summary

Daily Weather History Graph

Daily Weather History Graph

Search for Another Location

Airport or City:

Trip Planner

Search our weather history database for the weather conditions in past years. The results will help you decide how hot, cold, wet, or windy it might be!

Date:

Astronomy

Feb. 19, 2014 Rise Set
Actual Time 6:48 AM MST 5:38 PM MST
Civil Twilight 6:20 AM MST 6:06 PM MST
Nautical Twilight 5:48 AM MST 6:38 PM MST
Astronomical Twilight 5:16 AM MST 7:10 PM MST
Moon 10:37 PM MST (2/19) 8:52 AM MST (2/19)
Length of Visible Light 11h 46m
Length of Day
10h 50m
Waning Gibbous, 79% of the Moon is Illuminated
Feb 19
Waning Gibbous
Feb 22
Last Quarter
Mar 1
New
Mar 8
First Quarter
Mar 16
Full

Hourly Weather History & Observations

Time (MST) Temp. Windchill Dew Point Humidity Pressure Visibility Wind Dir Wind Speed Gust Speed Precip Events Conditions
12:53 AM 30.9 °F 20.2 °F 23.0 °F 72% 29.86 in 10.0 mi SSW 15.0 mph - N/A   Clear
1:53 AM 30.9 °F 21.2 °F 23.0 °F 72% 29.82 in 10.0 mi SSW 12.7 mph - N/A   Clear
2:53 AM 32.0 °F 24.8 °F 21.0 °F 64% 29.79 in 10.0 mi South 8.1 mph - N/A   Clear
3:53 AM 30.0 °F 24.1 °F 21.0 °F 69% 29.75 in 10.0 mi South 5.8 mph - N/A   Clear
4:53 AM 30.9 °F - 19.9 °F 64% 29.74 in 10.0 mi Calm Calm - N/A   Clear
5:53 AM 27.0 °F - 19.9 °F 75% 29.77 in 10.0 mi Calm Calm - N/A   Clear
6:53 AM 26.1 °F 17.6 °F 19.9 °F 78% 29.76 in 10.0 mi WSW 8.1 mph - N/A   Clear
7:53 AM 30.0 °F - 21.9 °F 72% 29.74 in 10.0 mi Calm Calm - N/A   Clear
8:53 AM 42.1 °F - 19.9 °F 41% 29.65 in 10.0 mi Calm Calm - N/A   Clear
9:53 AM 46.0 °F 44.8 °F 19.9 °F 35% 29.62 in 10.0 mi SE 3.5 mph - N/A   Clear
10:53 AM 48.9 °F - 16.0 °F 27% 29.59 in 10.0 mi SSE 6.9 mph - N/A   Clear
11:53 AM 52.0 °F - 15.1 °F 23% 29.54 in 10.0 mi West 32.2 mph 40.3 mph N/A   Clear
12:53 PM 52.0 °F - 16.0 °F 24% 29.48 in 10.0 mi West 27.6 mph 34.5 mph N/A   Clear
1:53 PM 53.1 °F - 16.0 °F 23% 29.46 in 10.0 mi West 29.9 mph 39.1 mph N/A   Partly Cloudy
2:53 PM 53.1 °F - 17.1 °F 24% 29.43 in 10.0 mi WSW 23.0 mph 29.9 mph N/A   Scattered Clouds
3:53 PM 48.9 °F - 17.1 °F 28% 29.46 in 10.0 mi West 28.8 mph 38.0 mph N/A   Clear
4:53 PM 37.9 °F 28.5 °F 24.1 °F 57% 29.56 in 10.0 mi WNW 17.3 mph 32.2 mph N/A   Scattered Clouds
5:53 PM 37.0 °F 26.7 °F 23.0 °F 57% 29.58 in 10.0 mi WNW 19.6 mph 32.2 mph N/A   Overcast
6:53 PM 27.0 °F 11.6 °F 21.9 °F 81% 29.70 in 10.0 mi North 26.5 mph 36.8 mph N/A   Overcast
7:07 PM 26.6 °F 13.1 °F 21.2 °F 80% 29.62 in 10.0 mi North 19.6 mph 35.7 mph N/A   Overcast
7:29 PM 24.8 °F 7.9 °F 21.2 °F 86% 29.62 in 10.0 mi North 29.9 mph 40.3 mph N/A   Overcast
7:53 PM 25.0 °F 10.9 °F 21.0 °F 85% 29.71 in 10.0 mi North 19.6 mph 35.7 mph N/A   Overcast
8:13 PM 24.8 °F 9.6 °F 19.4 °F 80% 29.62 in 10.0 mi North 23.0 mph 36.8 mph N/A   Overcast
8:53 PM 25.0 °F 9.9 °F 18.0 °F 75% 29.70 in 10.0 mi North 23.0 mph 33.4 mph N/A   Overcast
9:53 PM 23.0 °F 8.7 °F 18.0 °F 81% 29.70 in 5.0 mi North 18.4 mph 27.6 mph 0.00 in Snow Light Snow
10:53 PM 25.0 °F 9.9 °F 15.1 °F 66% 29.69 in 10.0 mi North 23.0 mph 31.1 mph 0.00 in   Overcast
11:53 PM 23.0 °F 9.6 °F 14.0 °F 68% 29.70 in 10.0 mi NNW 16.1 mph 26.5 mph N/A   Mostly Cloudy